Regional Weather Roundup
Issued by NWS

Home | Current Version | Previous Version | Text Only | Print | Product List | Glossary Off
Versions: 1 2 3 4 5 6 7 8 9 10 11 12 13 14 15 16 17 18 19 20 21 22 23 24 25 26 27

000
ASUS45 KCYS 192010
RWRWY

WYOMING REGIONAL WEATHER ROUNDUP
NATIONAL WEATHER SERVICE CHEYENNE WY
200 PM MDT SAT AUG 19 2017

NOTE:  "FAIR" INDICATES FEW OR NO CLOUDS BELOW 12,000 FEET
WITH NO SIGNIFICANT WEATHER AND/OR OBSTRUCTIONS TO VISIBILITY.

WYZ001-192100-
YELLOWSTONE NATIONAL PARK

CITY           SKY/WX    TMP DP  RH WIND       PRES   REMARKS
LK YELLOWSTONE   N/A     68  30  24 SW9       30.27S
W YELLOWSTONE  NOT AVBL

$$
WYZ002>013-054>058-071-098>099-192100-
NORTHERN WYOMING

CITY           SKY/WX    TMP DP  RH WIND       PRES   REMARKS
JACKSON        FAIR      78  28  16 VRB7G20   30.17F
CODY           FAIR      79  39  23 NE6       30.02F
GREYBULL       FAIR      89  32  13 E6        29.92F
WORLAND        FAIR      90  36  14 VRB5      29.93F
SHERIDAN       FAIR      85  31  14 N7        29.97F
BUFFALO        CLOUDY    85  28  12 N9        30.04S HAZE
GILLETTE       FAIR      89  28  11 N7        29.96F
HULETT         FAIR      86  34  15 N8        29.97S
NEWCASTLE      FAIR      90  30  12 CALM      29.95S

$$
WYZ014>020-022>026-101>103-192100-
CENTRAL WYOMING

CITY           SKY/WX    TMP DP  RH WIND       PRES   REMARKS
BIG PINEY      FAIR      82  15   8 NW14G28   30.21F
PINEDALE       FAIR      79  21  11 W6        30.22F
DUBOIS         FAIR      77  18  10 W20G25    30.17F
LANDER           N/A    N/A N/A N/A MISG      30.05F
RIVERTON       FAIR      84  29  13 CALM      30.05F
CASPER         FAIR      88  27  11 W8        30.03F
DOUGLAS        FAIR      88  31  13 NW8       30.01F

$$
WYZ021-027>030-104>119-192100-
SOUTHERN WYOMING

CITY           SKY/WX    TMP DP  RH WIND       PRES   REMARKS
EVANSTON       FAIR      82  25  12 W18G25    30.25F
FORT BRIDGER   FAIR      84  24  11 NW13G25   30.26F
ROCK SPRINGS   FAIR      82  20  10 W16G23    30.21F
RAWLINS        FAIR      82  19   9 W16G28    30.19F
SARATOGA       FAIR      81  27  13 W15G26    30.23F
LARAMIE        FAIR      82  20  10 W18G30    30.19F
CHEYENNE       FAIR      87  26  11 W12G26    30.10F
TORRINGTON     FAIR      93  31  11 NW10      29.94F
PINE BLUFFS    FAIR      88  32  13 N6G16     30.03F

$$




USA.gov is the U.S. government's official web portal to all federal, state and local government web resources and services.